Tracking 30743 objects as of 25-Jun-2025
HD Live streaming from Space Station
objects crossing your sky now

NOAA 17 DEB

Track NOAA 17 DEB now!
10-day predictions


NORAD ID: 48724
Int'l Code: 2002-032BJ
Perigee: 661.1 km
Apogee: 698.2 km
Inclination: 98.8 °
Period: 98.2 minutes
Semi major axis: 7050 km
RCS: Unknown
Launch date: June 24, 2002
Source: United States (US)
Launch site: AIR FORCE WESTERN TEST RANGE (AFWTR)

Note: This is SATELLITE DEBRIS
Your satellite tracking list
Your tracking list is empty




NASA's NSSDC Master Catalog

Two Line Element Set (TLE):
1 48724U 02032BH  25175.25416630  .00005767  00000-0  10470-2 0  9998
2 48724  98.7674 186.9534 0026312 340.8026  19.2182 14.66413301225170
Source of the keplerian elements: AFSPC